Weather History for Perry, FL

Change the Weather History Date:

Friday, January 25, 2013

  Actual Average (KCTY) Record (KCTY)
Temperature  
Mean Temperature 62 °F 54 °F  
Max Temperature 73 °F 67 °F 80 °F (2012)
Min Temperature 50 °F 41 °F 19 °F (2003)
Degree Days  
Heating Degree Days 4 11  
Month to date heating degree days 308  
Since 1 July heating degree days 813  
Cooling Degree Days 0 0  
Month to date cooling degree days 0  
Year to date cooling degree days 0  
Growing Degree Days 12 (Base 50)    
Moisture  
Dew Point 49 °F    
Average Humidity 74    
Maximum Humidity 96    
Minimum Humidity 41    
Precipitation  
Precipitation 0.00 in 0.14 in 3.00 in (2011)
Month to date precipitation 3.32  
Year to date precipitation 3.32  
Sea Level Pressure  
Sea Level Pressure 30.26 in    
Wind  
Wind Speed 4 mph (South)    
Max Wind Speed 14 mph    
Max Gust Speed 20 mph    
T = Trace of Precipitation, MM = Missing Value Source: NWS Daily Summary

Daily Weather History Graph

Daily Weather History Graph

Search for Another Location

Airport:

Trip Planner

Search our weather history database for the weather conditions in past years. The results will help you decide how hot, cold, wet, or windy it might be!

Date:

Astronomy

Jan. 25, 2013 Rise Set
Actual Time 7:28 AM EST 6:05 PM EST
Civil Twilight 7:02 AM EST 6:31 PM EST
Nautical Twilight 6:33 AM EST 6:59 PM EST
Astronomical Twilight 6:05 AM EST 7:28 PM EST
Moon 5:01 PM EST (1/25) 6:06 AM EST (1/25)
Length of Visible Light 11h 28m
Length of Day
10h 37m
Waxing Gibbous, 98% of the Moon is Illuminated
Jan 25
Waxing Gibbous
Jan 26
Full
Feb 3
Last Quarter
Feb 10
New
Feb 17
First Quarter

Hourly Weather History & Observations

Time (EST) Temp. Dew Point Humidity Pressure Visibility Wind Dir Wind Speed Gust Speed Precip Events Conditions
12:53 AM 53.1 °F 50.0 °F 89% 30.29 in - Calm Calm - N/A   Unknown
1:53 AM 54.0 °F 50.0 °F 86% 30.28 in - Calm Calm - N/A   Unknown
2:53 AM 54.0 °F 48.9 °F 83% 30.29 in - North 4.6 mph - N/A   Unknown
3:53 AM 55.0 °F 46.9 °F 74% 30.30 in - NE 6.9 mph - N/A   Unknown
4:53 AM 54.0 °F 46.9 °F 77% 30.29 in - ENE 5.8 mph - N/A   Unknown
5:53 AM 54.0 °F 48.0 °F 80% 30.29 in - ENE 5.8 mph - N/A   Unknown
6:53 AM 53.1 °F 46.9 °F 80% 30.31 in - Variable 3.5 mph - N/A   Unknown
7:53 AM 52.0 °F 46.9 °F 83% 30.32 in - Variable 4.6 mph - N/A   Unknown
8:53 AM 53.1 °F 46.9 °F 80% 30.33 in - Variable 5.8 mph - N/A   Unknown
9:53 AM 57.9 °F 48.0 °F 70% 30.34 in - Variable 4.6 mph - N/A   Unknown
10:53 AM 62.1 °F 48.9 °F 62% 30.33 in - ESE 5.8 mph - N/A   Unknown
11:53 AM 66.9 °F 50.0 °F 54% 30.30 in - SSE 6.9 mph - N/A   Unknown
12:53 PM 72.0 °F 50.0 °F 46% 30.25 in - SSW 8.1 mph - N/A   Unknown
1:53 PM 73.0 °F 48.0 °F 41% 30.22 in - SSW 12.7 mph 19.6 mph N/A   Unknown
2:53 PM 73.0 °F 48.0 °F 41% 30.21 in - SW 13.8 mph - N/A   Unknown
3:53 PM 68.0 °F 50.0 °F 52% 30.21 in - SSW 12.7 mph - N/A   Unknown
4:53 PM 66.0 °F 51.1 °F 59% 30.21 in - WSW 9.2 mph - N/A   Unknown
5:53 PM 62.1 °F 52.0 °F 70% 30.21 in - WSW 5.8 mph - N/A   Unknown
6:53 PM 59.0 °F 53.1 °F 81% 30.21 in - South 4.6 mph - N/A   Unknown
7:53 PM 55.9 °F 52.0 °F 87% 30.21 in - Calm Calm - N/A   Unknown
8:53 PM 51.1 °F 48.9 °F 92% 30.21 in - Calm Calm - N/A   Unknown
9:53 PM 50.0 °F 48.0 °F 93% 30.22 in - Calm Calm - N/A   Unknown
10:53 PM 51.1 °F 50.0 °F 96% 30.22 in - Calm Calm - N/A   Unknown
11:53 PM 51.1 °F 48.9 °F 92% 30.22 in - Calm Calm - N/A   Unknown